Date,TemperatureHighF,TemperatureAvgF,TemperatureLowF,DewpointHighF,DewpointAvgF,DewpointLowF,HumidityHigh,HumidityAvg,HumidityLow,PressureMaxIn,PressureMinIn,WindSpeedMaxMPH,WindSpeedAvgMPH,GustSpeedMaxMPH,PrecipitationSumIn
2013-4-1,68.1,58.6,53.3,50.7,47.3,41.0,81,67,50,30.19,30.08,8,2,8,0.00
2013-4-2,65.9,58.1,52.4,50.5,47.9,43.4,83,70,49,30.11,29.99,7,1,10,0.00
2013-4-3,74.2,58.8,52.8,54.6,49.7,46.8,84,73,50,30.10,29.99,9,1,9,0.00
2013-4-4,79.9,62.2,55.4,54.3,49.4,45.8,79,64,37,30.12,30.01,8,1,8,0.00
2013-4-5,65.4,58.6,56.0,53.3,51.5,49.5,86,78,63,30.11,30.01,9,1,9,0.00
2013-4-6,67.6,59.6,55.1,53.5,50.4,45.3,80,72,57,30.09,29.97,9,1,9,0.00
2013-4-7,64.7,57.7,51.7,52.0,47.3,38.5,78,68,59,29.99,29.82,8,1,8,0.00
2013-4-8,64.1,57.4,51.1,50.4,45.1,34.2,80,64,50,29.83,29.70,20,3,20,0.00
2013-4-9,70.1,56.6,45.6,46.4,37.3,31.7,73,50,26,30.02,29.82,13,2,13,0.00
2013-4-10,77.8,60.4,46.9,48.4,39.1,31.6,65,47,23,30.10,30.00,8,1,8,0.00
2013-4-11,65.6,57.6,50.1,44.9,38.3,27.8,58,49,41,30.03,29.81,9,2,9,0.00
2013-4-12,70.3,59.8,55.4,52.3,43.2,38.1,67,54,46,29.90,29.78,8,1,8,0.00
2013-4-13,57.2,55.9,53.9,41.7,40.3,37.6,58,56,54,29.94,29.86,6,1,6,0.00
2013-4-14,59.6,55.0,52.3,43.8,39.1,37.0,70,55,50,29.90,29.84,8,1,8,0.00
2013-4-15,60.6,55.8,52.6,42.5,39.0,35.5,58,53,49,29.94,29.86,9,2,9,0.00
2013-4-16,64.6,54.9,48.9,43.5,36.3,32.9,71,50,38,30.00,29.89,13,2,13,0.00
2013-4-17,69.9,57.1,44.6,40.3,32.3,24.3,69,42,19,30.12,30.00,12,2,12,0.00
2013-4-18,78.4,63.1,49.8,33.1,25.6,18.5,40,25,14,30.20,30.10,13,2,13,0.00
2013-4-19,83.6,66.3,51.9,43.6,28.0,21.0,58,25,13,30.16,29.97,13,1,13,0.00
2013-4-20,85.0,64.1,49.7,51.5,43.1,35.2,75,49,23,30.01,29.88,8,0,8,0.00
2013-4-21,68.5,59.9,54.6,53.2,49.3,44.8,78,68,57,30.02,29.94,9,1,9,0.00
2013-4-22,63.5,58.2,55.4,46.9,44.2,42.4,66,60,54,30.01,29.92,8,1,8,0.00
2013-4-23,66.1,59.3,55.7,49.5,45.0,41.5,69,59,51,29.99,29.86,10,1,10,0.00
2013-4-24,61.0,57.2,55.2,47.3,44.8,42.4,69,63,53,29.99,29.91,5,0,5,0.00
2013-4-25,72.0,60.4,54.7,51.1,46.4,42.9,70,60,42,30.12,29.97,8,1,8,0.00
2013-4-26,74.8,61.8,50.7,52.7,46.4,37.8,72,58,38,30.16,30.09,9,1,9,0.00
2013-4-27,76.9,61.7,53.6,56.3,49.3,41.0,79,65,49,30.16,30.00,8,1,8,0.00
2013-4-28,67.1,59.8,56.7,53.2,50.4,49.2,77,71,59,30.04,29.87,8,1,8,0.00
2013-4-29,65.5,58.8,55.9,52.1,49.8,47.8,79,72,61,29.92,29.79,7,2,7,0.00
2013-4-30,63.6,58.9,56.6,50.7,48.7,47.0,76,69,62,29.91,29.84,11,2,11,0.00